Location: Newark
(43.4306°N, 0.3089°E)
Time: 19:56:59
(UTC+00:00)

Transit 2A Rocket - Visible Passes

Search period start: 25 August 2019 00:00
Search period end: 04 September 2019 00:00
Orbit: 591 x 913 km, 66.7° (Epoch: 25 August)

Date Brightness Start Highest point End Pass type
(mag) Time Alt. Az. Time Alt. Az. Time Alt. Az.
25 Aug 5.5 02:55:51 10° NNW 03:00:18 48° NE 03:04:30 10° SE visible
25 Aug 5.9 04:39:23 10° WNW 04:42:23 18° WSW 04:45:18 10° SSW visible
25 Aug 6.6 19:12:57 10° WSW 19:18:20 42° NW 19:23:21 10° NNE visible
25 Aug 8.5 21:02:09 10° NNW 21:02:16 10° NNW 21:02:22 10° NNW visible
26 Aug 6.5 02:13:35 10° NNW 02:17:36 29° NE 02:21:24 10° ESE visible
26 Aug 5.1 03:56:07 10° NW 04:00:09 33° WSW 04:04:00 10° S visible
26 Aug 7.9 20:16:13 10° WNW 20:19:11 15° NW 20:22:03 10° N visible
27 Aug 7.2 01:31:32 10° N 01:34:46 18° NE 01:37:51 10° E visible
27 Aug 4.4 03:13:19 10° NW 03:17:47 62° WSW 03:21:00 17° SSE visible
27 Aug 7.7 19:32:05 10° W 19:36:16 21° NW 19:40:13 10° N visible
28 Aug 7.6 00:49:54 10° N 00:51:48 12° NE 00:53:38 10° ENE visible
28 Aug 4.9 02:30:45 10° NNW 02:34:44 61° N 02:34:44 61° N visible
29 Aug 6.2 01:48:23 10° NNW 01:51:19 31° N 01:51:19 31° N visible
29 Aug 8.1 19:52:55 10° NW 19:54:31 11° NNW 19:56:06 10° NNW visible
30 Aug 7.0 01:06:11 10° N 01:08:33 21° NNE 01:08:33 21° NNE visible
30 Aug 7.7 19:08:07 10° WNW 19:11:30 16° NW 19:14:45 10° N visible
31 Aug 7.4 00:24:15 10° N 00:26:07 15° NNE 00:26:07 15° NNE visible
31 Aug 7.3 02:05:44 10° NW 02:05:57 11° NW 02:05:57 11° NW visible
31 Aug 7.7 23:43:08 10° NNE 23:43:53 10° NNE 23:43:53 10° NNE visible
01 Sep 7.4 01:23:15 10° NNW 01:23:43 13° NNW 01:23:43 13° NNW visible
02 Sep 7.5 00:40:56 10° NNW 00:41:37 14° N 00:41:37 14° N visible
02 Sep 7.6 23:58:49 10° N 23:59:38 13° N 23:59:38 13° N visible
03 Sep 7.6 23:17:02 10° N 23:17:42 12° NNE 23:17:42 12° NNE visible
